| time (UTC) | temp F | wind direction | speed MPH | gust MPH | rain 1hr in | rain 24hr in | rain mn in | humidity % | barometer mb |
| 20260509191009 | 59 | 0.0 | 0.0 | 0.00 | 0.00 | 0.00 | 63 | 1016.3 | |
| 20260509190557 | 59 | 0.0 | 0.0 | 0.00 | 0.00 | 0.00 | 61 | 1016.2 | |
| 20260509190015 | 60 | 0.0 | 0.0 | 0.00 | 0.00 | 0.00 | 61 | 1016.1 | |
| 20260509185502 | 60 | 0.0 | 0.0 | 0.00 | 0.00 | 0.00 | 60 | 1016.1 | |
| 20260509185052 | 61 | 0.0 | 0.0 | 0.00 | 0.00 | 0.00 | 59 | 1016.1 | |
| 20260509184522 | 61 | 0.0 | 0.0 | 0.00 | 0.00 | 0.00 | 58 | 1016.2 | |
| 20260509184011 | 62 | 0.0 | 0.0 | 0.00 | 0.00 | 0.00 | 56 | 1016.1 | |
| 20260509183601 | 62 | 0.0 | 0.0 | 0.00 | 0.00 | 0.00 | 56 | 1016.2 | |
| 20260509183020 | 63 | 0.0 | 0.0 | 0.00 | 0.00 | 0.00 | 55 | 1016.2 | |
| 20260509182508 | 63 | 0.0 | 0.0 | 0.00 | 0.00 | 0.00 | 54 | 1016.3 | |
| 20260509182058 | 64 | 0.0 | 0.0 | 0.00 | 0.00 | 0.00 | 53 | 1016.2 | |
| 20260509181527 | 64 | 0.0 | 0.0 | 0.00 | 0.00 | 0.00 | 53 | 1016.2 | |
| 20260509181015 | 65 | 0.0 | 0.0 | 0.00 | 0.00 | 0.00 | 51 | 1016.2 | |
| 20260509180503 | 66 | 0.0 | 0.0 | 0.00 | 0.00 | 0.00 | 50 | 1016.1 | |
| 20260509180025 | 66 | 0.0 | 0.0 | 0.00 | 0.00 | 0.00 | 49 | 1016.1 | |
| 20260509175514 | 67 | 0.0 | 0.0 | 0.00 | 0.00 | 0.00 | 49 | 1015.8 | |
| 20260509175001 | 67 | 0.0 | 0.0 | 0.00 | 0.00 | 0.00 | 49 | 1016.0 | |
| 20260509174543 | 67 | 0.0 | 0.0 | 0.00 | 0.00 | 0.00 | 49 | 1016.1 | |
| 20260509174024 | 67 | 0.0 | 0.0 | 0.00 | 0.00 | 0.00 | 48 | 1016.0 | |
| 20260509173506 | 67 | 0.0 | 0.0 | 0.00 | 0.00 | 0.00 | 48 | 1016.2 | |
| 20260509173028 | 67 | 0.0 | 0.0 | 0.00 | 0.00 | 0.00 | 49 | 1016.1 | |
| 20260509172519 | 67 | 0.0 | 0.0 | 0.00 | 0.00 | 0.00 | 47 | 1016.2 | |
| 20260509172007 | 67 | 0.0 | 0.0 | 0.00 | 0.00 | 0.00 | 48 | 1016.2 | |
| 20260509171541 | 67 | 0.0 | 0.0 | 0.00 | 0.00 | 0.00 | 48 | 1016.1 | |
| 20260509171022 | 67 | 0.0 | 0.0 | 0.00 | 0.00 | 0.00 | 48 | 1016.2 | |
| 20260509170510 | 67 | 0.0 | 0.0 | 0.00 | 0.00 | 0.00 | 47 | 1016.2 | |
| 20260509170033 | 67 | 0.0 | 0.0 | 0.00 | 0.00 | 0.00 | 48 | 1016.3 | |
| 20260509165519 | 67 | 0.0 | 0.0 | 0.00 | 0.00 | 0.00 | 48 | 1016.3 | |
| 20260509165008 | 67 | 0.0 | 0.0 | 0.00 | 0.00 | 0.00 | 48 | 1016.3 | |
| 20260509164529 | 67 | 0.0 | 0.0 | 0.00 | 0.00 | 0.00 | 49 | 1016.2 | |
| 20260509164018 | 67 | 0.0 | 0.0 | 0.00 | 0.00 | 0.00 | 50 | 1016.3 | |
| 20260509163505 | 67 | 0.0 | 0.0 | 0.00 | 0.00 | 0.00 | 50 | 1016.2 | |
| 20260509163036 | 67 | 0.0 | 0.0 | 0.00 | 0.00 | 0.00 | 50 | 1016.3 | |
| 20260509162518 | 66 | 0.0 | 0.0 | 0.00 | 0.00 | 0.00 | 52 | 1016.2 | |
| 20260509162004 | 65 | 0.0 | 0.0 | 0.00 | 0.00 | 0.00 | 52 | 1016.2 | |
| 20260509161530 | 64 | 0.0 | 0.0 | 0.00 | 0.00 | 0.00 | 53 | 1016.2 | |
| 20260509161012 | 65 | 0.0 | 0.0 | 0.00 | 0.00 | 0.00 | 52 | 1016.2 | |
| 20260509160602 | 65 | 0.0 | 0.0 | 0.00 | 0.00 | 0.00 | 52 | 1016.1 | |
| 20260509160030 | 66 | 0.0 | 0.0 | 0.00 | 0.00 | 0.00 | 50 | 1016.1 | |
| 20260509155517 | 66 | 0.0 | 0.0 | 0.00 | 0.00 | 0.00 | 51 | 1016.3 | |
| 20260509155005 | 66 | 0.0 | 0.0 | 0.00 | 0.00 | 0.00 | 52 | 1016.2 | |
| 20260509154526 | 66 | 0.0 | 0.0 | 0.00 | 0.00 | 0.00 | 54 | 1016.3 | |
| 20260509154013 | 65 | 0.0 | 0.0 | 0.00 | 0.00 | 0.00 | 55 | 1016.4 | |
| 20260509153501 | 65 | 0.0 | 0.0 | 0.00 | 0.00 | 0.00 | 52 | 1016.4 | |
| 20260509153046 | 66 | 0.0 | 0.0 | 0.00 | 0.00 | 0.00 | 50 | 1016.5 | |
| 20260509152521 | 66 | 0.0 | 0.0 | 0.00 | 0.00 | 0.00 | 53 | 1016.6 | |
| 20260509152010 | 66 | 0.0 | 0.0 | 0.00 | 0.00 | 0.00 | 56 | 1016.6 | |
| 20260509151534 | 64 | 0.0 | 0.0 | 0.00 | 0.00 | 0.00 | 56 | 1016.6 | |
| 20260509151021 | 64 | 0.0 | 0.0 | 0.00 | 0.00 | 0.00 | 55 | 1016.7 | |
| 20260509150509 | 64 | 0.0 | 0.0 | 0.00 | 0.00 | 0.00 | 55 | 1016.7 | |
| 20260509150037 | 64 | 0.0 | 0.0 | 0.00 | 0.00 | 0.00 | 55 | 1016.7 | |
| 20260509145515 | 64 | 0.0 | 0.0 | 0.00 | 0.00 | 0.00 | 55 | 1016.7 | |
| 20260509145003 | 64 | 0.0 | 0.0 | 0.00 | 0.00 | 0.00 | 54 | 1016.8 | |
| 20260509144532 | 65 | 0.0 | 0.0 | 0.00 | 0.00 | 0.00 | 55 | 1016.7 | |
| 20260509144021 | 65 | 0.0 | 0.0 | 0.00 | 0.00 | 0.00 | 53 | 1016.8 | |
| 20260509143509 | 65 | 0.0 | 0.0 | 0.00 | 0.00 | 0.00 | 53 | 1016.8 | |
| 20260509143030 | 66 | 0.0 | 0.0 | 0.00 | 0.00 | 0.00 | 54 | 1016.9 | |
| 20260509142518 | 66 | 0.0 | 0.0 | 0.00 | 0.00 | 0.00 | 52 | 1016.8 | |
| 20260509142103 | 66 | 0.0 | 0.0 | 0.00 | 0.00 | 0.00 | 51 | 1017.0 | |
| 20260509141523 | 65 | 0.0 | 0.0 | 0.00 | 0.00 | 0.00 | 55 | 1017.1 | |
| 20260509141011 | 66 | 0.0 | 0.0 | 0.00 | 0.00 | 0.00 | 53 | 1017.1 | |
| 20260509140603 | 66 | 0.0 | 0.0 | 0.00 | 0.00 | 0.00 | 51 | 1017.1 | |
| 20260509140025 | 64 | 0.0 | 0.0 | 0.00 | 0.00 | 0.00 | 57 | 1017.1 | |
| 20260509135509 | 64 | 0.0 | 0.0 | 0.00 | 0.00 | 0.00 | 53 | 1017.2 | |
| 20260509135100 | 64 | 0.0 | 0.0 | 0.00 | 0.00 | 0.00 | 54 | 1017.2 | |
| 20260509134519 | 64 | 0.0 | 0.0 | 0.00 | 0.00 | 0.00 | 55 | 1017.4 | |
| 20260509134007 | 64 | 0.0 | 0.0 | 0.00 | 0.00 | 0.00 | 56 | 1017.3 | |
| 20260509133559 | 64 | 0.0 | 0.0 | 0.00 | 0.00 | 0.00 | 54 | 1017.4 | |
| 20260509133016 | 64 | 0.0 | 0.0 | 0.00 | 0.00 | 0.00 | 56 | 1017.5 | |
| 20260509132505 | 65 | 0.0 | 0.0 | 0.00 | 0.00 | 0.00 | 53 | 1017.6 | |
| 20260509132055 | 67 | 0.0 | 0.0 | 0.00 | 0.00 | 0.00 | 52 | 1017.7 | |
| 20260509131517 | 67 | 0.0 | 0.0 | 0.00 | 0.00 | 0.00 | 52 | 1017.7 | |
| 20260509131004 | 67 | 0.0 | 0.0 | 0.00 | 0.00 | 0.00 | 55 | 1017.7 | |
| 20260509130553 | 67 | 0.0 | 0.0 | 0.00 | 0.00 | 0.00 | 51 | 1017.7 | |
| 20260509130021 | 66 | 0.0 | 0.0 | 0.00 | 0.00 | 0.00 | 51 | 1017.8 | |
| 20260509125509 | 67 | 0.0 | 0.0 | 0.00 | 0.00 | 0.00 | 50 | 1017.8 | |
| 20260509125058 | 66 | 0.0 | 0.0 | 0.00 | 0.00 | 0.00 | 52 | 1017.9 | |
| 20260509124515 | 65 | 0.0 | 0.0 | 0.00 | 0.00 | 0.00 | 54 | 1018.0 | |
| 20260509124003 | 63 | 0.0 | 0.0 | 0.00 | 0.00 | 0.00 | 55 | 1018.0 | |
| 20260509123557 | 64 | 0.0 | 0.0 | 0.00 | 0.00 | 0.00 | 55 | 1018.1 | |
| 20260509123014 | 65 | 0.0 | 0.0 | 0.00 | 0.00 | 0.00 | 57 | 1018.0 | |
| 20260509122502 | 65 | 0.0 | 0.0 | 0.00 | 0.00 | 0.00 | 54 | 1018.1 | |
| 20260509122053 | 65 | 0.0 | 0.0 | 0.00 | 0.00 | 0.00 | 55 | 1018.2 | |
| 20260509121514 | 63 | 0.0 | 0.0 | 0.00 | 0.00 | 0.00 | 57 | 1018.4 | |
| 20260509121102 | 63 | 0.0 | 0.0 | 0.00 | 0.00 | 0.00 | 58 | 1018.3 | |
| 20260509120551 | 64 | 0.0 | 0.0 | 0.00 | 0.00 | 0.00 | 57 | 1018.4 | |
| 20260509120012 | 63 | 0.0 | 0.0 | 0.00 | 0.00 | 0.00 | 63 | 1018.4 | |
| 20260509115558 | 62 | 0.0 | 0.0 | 0.00 | 0.00 | 0.00 | 60 | 1018.4 | |
| 20260509115047 | 62 | 0.0 | 0.0 | 0.00 | 0.00 | 0.00 | 60 | 1018.4 | |
| 20260509114510 | 63 | 0.0 | 0.0 | 0.00 | 0.00 | 0.00 | 60 | 1018.5 | |
| 20260509114056 | 63 | 0.0 | 0.0 | 0.00 | 0.00 | 0.00 | 57 | 1018.5 | |
| 20260509113547 | 64 | 0.0 | 0.0 | 0.00 | 0.00 | 0.00 | 56 | 1018.5 | |
| 20260509113004 | 65 | 0.0 | 0.0 | 0.00 | 0.00 | 0.00 | 54 | 1018.5 | |
| 20260509112554 | 66 | 0.0 | 0.0 | 0.00 | 0.00 | 0.00 | 59 | 1018.6 | |
| 20260509112044 | 65 | 0.0 | 0.0 | 0.00 | 0.00 | 0.00 | 60 | 1018.5 | |
| 20260509111505 | 65 | 0.0 | 0.0 | 0.00 | 0.00 | 0.00 | 63 | 1018.6 | |
| 20260509111057 | 65 | 0.0 | 0.0 | 0.00 | 0.00 | 0.00 | 61 | 1018.7 | |
| 20260509110546 | 63 | 0.0 | 0.0 | 0.00 | 0.00 | 0.00 | 60 | 1018.7 | |
| 20260509110014 | 63 | 0.0 | 0.0 | 0.00 | 0.00 | 0.00 | 58 | 1018.7 | |
| 20260509105504 | 63 | 0.0 | 0.0 | 0.00 | 0.00 | 0.00 | 61 | 1018.8 | |
| 20260509105055 | 64 | 0.0 | 0.0 | 0.00 | 0.00 | 0.00 | 61 | 1018.9 | |
| 20260509104515 | 64 | 0.0 | 0.0 | 0.00 | 0.00 | 0.00 | 65 | 1018.9 | |
| 20260509104002 | 63 | 0.0 | 0.0 | 0.00 | 0.00 | 0.00 | 61 | 1019.0 | |
| 20260509103554 | 63 | 0.0 | 0.0 | 0.00 | 0.00 | 0.00 | 64 | 1018.9 | |
| 20260509103023 | 63 | 0.0 | 0.0 | 0.00 | 0.00 | 0.00 | 63 | 1019.0 | |
| 20260509102513 | 63 | 0.0 | 0.0 | 0.00 | 0.00 | 0.00 | 64 | 1019.1 | |
| 20260509102102 | 62 | 0.0 | 0.0 | 0.00 | 0.00 | 0.00 | 62 | 1019.1 | |
| 20260509101521 | 63 | 0.0 | 0.0 | 0.00 | 0.00 | 0.00 | 65 | 1019.1 | |
| 20260509101012 | 62 | 0.0 | 0.0 | 0.00 | 0.00 | 0.00 | 62 | 1019.1 | |
| 20260509100558 | 62 | 0.0 | 0.0 | 0.00 | 0.00 | 0.00 | 62 | 1019.1 | |
| 20260509100027 | 62 | 0.0 | 0.0 | 0.00 | 0.00 | 0.00 | 64 | 1019.2 | |
| 20260509095519 | 61 | 0.0 | 0.0 | 0.00 | 0.00 | 0.00 | 63 | 1019.1 | |
| 20260509095003 | 62 | 0.0 | 0.0 | 0.00 | 0.00 | 0.00 | 63 | 1019.3 | |
| 20260509094523 | 62 | 0.0 | 0.0 | 0.00 | 0.00 | 0.00 | 65 | 1019.3 | |
| 20260509094010 | 62 | 0.0 | 0.0 | 0.00 | 0.00 | 0.00 | 64 | 1019.3 | |
| 20260509093601 | 63 | 0.0 | 0.0 | 0.00 | 0.00 | 0.00 | 66 | 1019.3 | |
| 20260509093039 | 62 | 0.0 | 0.0 | 0.00 | 0.00 | 0.00 | 69 | 1019.3 | |
| 20260509092518 | 61 | 0.0 | 0.0 | 0.00 | 0.00 | 0.00 | 66 | 1019.3 | |
| 20260509092009 | 61 | 0.0 | 0.0 | 0.00 | 0.00 | 0.00 | 69 | 1019.3 | |
| 20260509091528 | 61 | 0.0 | 0.0 | 0.00 | 0.00 | 0.00 | 70 | 1019.3 | |
| 20260509091016 | 61 | 0.0 | 0.0 | 0.00 | 0.00 | 0.00 | 70 | 1019.3 | |
| 20260509090505 | 61 | 0.0 | 0.0 | 0.00 | 0.00 | 0.00 | 71 | 1019.2 | |
| 20260509090026 | 61 | 0.0 | 0.0 | 0.00 | 0.00 | 0.00 | 71 | 1019.4 | |
| 20260509085514 | 60 | 0.0 | 0.0 | 0.00 | 0.00 | 0.00 | 71 | 1019.2 | |
| 20260509085002 | 59 | 0.0 | 0.0 | 0.00 | 0.00 | 0.00 | 71 | 1019.2 | |
| 20260509084530 | 59 | 0.0 | 0.0 | 0.00 | 0.00 | 0.00 | 72 | 1019.3 | |
| 20260509084016 | 59 | 0.0 | 0.0 | 0.00 | 0.00 | 0.00 | 73 | 1019.3 | |
| 20260509083602 | 59 | 0.0 | 0.0 | 0.00 | 0.00 | 0.00 | 71 | 1019.4 | |
| 20260509083018 | 59 | 0.0 | 0.0 | 0.00 | 0.00 | 0.00 | 72 | 1019.3 | |
| 20260509082508 | 59 | 0.0 | 0.0 | 0.00 | 0.00 | 0.00 | 73 | 1019.4 | |
| 20260509082058 | 59 | 0.0 | 0.0 | 0.00 | 0.00 | 0.00 | 73 | 1019.4 | |
| 20260509081525 | 59 | 0.0 | 0.0 | 0.00 | 0.00 | 0.00 | 73 | 1019.4 | |
| 20260509081014 | 59 | 0.0 | 0.0 | 0.00 | 0.00 | 0.00 | 74 | 1019.5 | |
| 20260509080604 | 59 | 0.0 | 0.0 | 0.00 | 0.00 | 0.00 | 75 | 1019.4 | |
| 20260509080019 | 58 | 0.0 | 0.0 | 0.00 | 0.00 | 0.00 | 74 | 1019.5 | |
| 20260509075611 | 58 | 0.0 | 0.0 | 0.00 | 0.00 | 0.00 | 75 | 1019.5 | |
| 20260509075043 | 58 | 0.0 | 0.0 | 0.00 | 0.00 | 0.00 | 75 | 1019.5 | |
| 20260509074504 | 57 | 0.0 | 0.0 | 0.00 | 0.00 | 0.00 | 76 | 1019.5 | |
| 20260509074053 | 57 | 0.0 | 0.0 | 0.00 | 0.00 | 0.00 | 77 | 1019.5 | |
| 20260509073542 | 57 | 0.0 | 0.0 | 0.00 | 0.00 | 0.00 | 77 | 1019.4 | |
| 20260509073012 | 56 | 0.0 | 0.0 | 0.00 | 0.00 | 0.00 | 78 | 1019.3 | |
| 20260509072602 | 56 | 0.0 | 0.0 | 0.00 | 0.00 | 0.00 | 78 | 1019.4 | |
| 20260509072051 | 56 | 0.0 | 0.0 | 0.00 | 0.00 | 0.00 | 77 | 1019.5 | |
| 20260509071511 | 55 | 0.0 | 0.0 | 0.00 | 0.00 | 0.00 | 79 | 1019.6 | |
| 20260509071101 | 55 | 0.0 | 0.0 | 0.00 | 0.00 | 0.00 | 79 | 1019.6 | |
| 20260509070550 | 55 | 0.0 | 0.0 | 0.00 | 0.00 | 0.00 | 80 | 1019.8 | |
| 20260509070018 | 54 | 0.0 | 0.0 | 0.00 | 0.00 | 0.00 | 80 | 1019.8 | |
| 20260509065505 | 54 | 0.0 | 0.0 | 0.00 | 0.00 | 0.00 | 81 | 1019.8 | |
| 20260509065056 | 54 | 0.0 | 0.0 | 0.00 | 0.00 | 0.00 | 82 | 1019.8 | |
| 20260509064517 | 53 | 0.0 | 0.0 | 0.00 | 0.00 | 0.00 | 83 | 1019.8 | |
| 20260509064007 | 53 | 0.0 | 0.0 | 0.00 | 0.00 | 0.00 | 84 | 1019.8 | |
| 20260509063555 | 52 | 0.0 | 0.0 | 0.00 | 0.00 | 0.00 | 84 | 1019.9 | |
| 20260509063026 | 52 | 0.0 | 0.0 | 0.00 | 0.00 | 0.00 | 85 | 1019.8 | |
| 20260509062511 | 52 | 0.0 | 0.0 | 0.00 | 0.00 | 0.00 | 86 | 1019.9 | |
| 20260509062103 | 52 | 0.0 | 0.0 | 0.00 | 0.00 | 0.00 | 87 | 1019.8 | |
| 20260509061519 | 51 | 0.0 | 0.0 | 0.00 | 0.00 | 0.00 | 88 | 1019.8 | |
| 20260509061006 | 51 | 0.0 | 0.0 | 0.00 | 0.00 | 0.00 | 89 | 1019.8 | |
| 20260509060557 | 50 | 0.0 | 0.0 | 0.00 | 0.00 | 0.00 | 90 | 1019.8 | |
| 20260509060016 | 50 | 0.0 | 0.0 | 0.00 | 0.00 | 0.00 | 90 | 1019.8 | |
| 20260509055503 | 49 | 0.0 | 0.0 | 0.00 | 0.00 | 0.00 | 91 | 1019.7 | |
| 20260509055058 | 49 | 0.0 | 0.0 | 0.00 | 0.00 | 0.00 | 91 | 1019.6 | |
| 20260509054514 | 48 | 0.0 | 0.0 | 0.00 | 0.00 | 0.00 | 91 | 1019.6 | |
| 20260509054002 | 48 | 0.0 | 0.0 | 0.00 | 0.00 | 0.00 | 91 | 1019.6 | |
| 20260509053555 | 47 | 0.0 | 0.0 | 0.00 | 0.00 | 0.00 | 92 | 1019.6 | |
| 20260509053014 | 47 | 0.0 | 0.0 | 0.00 | 0.00 | 0.00 | 92 | 1019.5 | |
| 20260509052602 | 47 | 0.0 | 0.0 | 0.00 | 0.00 | 0.00 | 92 | 1019.5 | |
| 20260509052050 | 46 | 0.0 | 0.0 | 0.00 | 0.00 | 0.00 | 92 | 1019.3 | |
| 20260509051509 | 46 | 0.0 | 0.0 | 0.00 | 0.00 | 0.00 | 92 | 1019.3 | |
| 20260509051103 | 45 | 0.0 | 0.0 | 0.00 | 0.00 | 0.00 | 92 | 1019.3 | |
| 20260509050548 | 44 | 0.0 | 0.0 | 0.00 | 0.00 | 0.00 | 92 | 1019.3 | |
| 20260509050022 | 43 | 0.0 | 0.0 | 0.00 | 0.00 | 0.00 | 92 | 1019.2 | |
| 20260509045556 | 43 | 0.0 | 0.0 | 0.00 | 0.00 | 0.00 | 91 | 1019.3 | |
| 20260509045043 | 43 | 0.0 | 0.0 | 0.00 | 0.00 | 0.00 | 91 | 1019.2 | |
| 20260509044502 | 42 | 0.0 | 0.0 | 0.00 | 0.00 | 0.00 | 91 | 1019.2 | |
| 20260509044053 | 42 | 0.0 | 0.0 | 0.00 | 0.00 | 0.00 | 91 | 1019.2 | |
| 20260509043543 | 42 | 0.0 | 0.0 | 0.00 | 0.00 | 0.00 | 91 | 1019.1 | |
| 20260509043103 | 42 | 0.0 | 0.0 | 0.00 | 0.00 | 0.00 | 91 | 1019.1 | |
| 20260509042550 | 42 | 0.0 | 0.0 | 0.00 | 0.00 | 0.00 | 90 | 1019.2 | |
| 20260509042043 | 42 | 0.0 | 0.0 | 0.00 | 0.00 | 0.00 | 90 | 1019.2 | |
| 20260509041507 | 42 | 0.0 | 0.0 | 0.00 | 0.00 | 0.00 | 90 | 1019.2 | |
| 20260509041057 | 42 | 0.0 | 0.0 | 0.00 | 0.00 | 0.00 | 90 | 1019.2 | |
| 20260509040545 | 42 | 0.0 | 0.0 | 0.00 | 0.00 | 0.00 | 90 | 1019.2 | |
| 20260509040005 | 42 | 0.0 | 0.0 | 0.00 | 0.00 | 0.00 | 90 | 1019.2 | |
| 20260509035555 | 42 | 0.0 | 0.0 | 0.00 | 0.00 | 0.00 | 90 | 1019.2 | |
| 20260509035043 | 42 | 0.0 | 0.0 | 0.00 | 0.00 | 0.00 | 90 | 1019.1 | |
| 20260509034602 | 42 | 0.0 | 0.0 | 0.00 | 0.00 | 0.00 | 90 | 1019.1 | |
| 20260509034050 | 41 | 0.0 | 0.0 | 0.00 | 0.00 | 0.00 | 90 | 1019.2 | |
| 20260509033538 | 42 | 0.0 | 0.0 | 0.00 | 0.00 | 0.00 | 90 | 1019.1 | |
| 20260509033006 | 42 | 0.0 | 0.0 | 0.00 | 0.00 | 0.00 | 90 | 1019.2 | |
| 20260509032557 | 42 | 0.0 | 0.0 | 0.00 | 0.00 | 0.00 | 90 | 1019.2 | |
| 20260509032045 | 42 | 0.0 | 0.0 | 0.00 | 0.00 | 0.00 | 90 | 1019.2 | |
| 20260509031510 | 42 | 0.0 | 0.0 | 0.00 | 0.00 | 0.00 | 89 | 1019.2 | |
| 20260509031055 | 42 | 0.0 | 0.0 | 0.00 | 0.00 | 0.00 | 89 | 1019.3 | |
| 20260509030544 | 42 | 0.0 | 0.0 | 0.00 | 0.00 | 0.00 | 89 | 1019.5 | |
| 20260509030003 | 42 | 0.0 | 0.0 | 0.00 | 0.00 | 0.00 | 89 | 1019.5 | |
| 20260509025555 | 42 | 0.0 | 0.0 | 0.00 | 0.00 | 0.00 | 89 | 1019.5 | |
| 20260509025041 | 42 | 0.0 | 0.0 | 0.00 | 0.00 | 0.00 | 89 | 1019.5 | |
| 20260509024605 | 43 | 0.0 | 0.0 | 0.00 | 0.00 | 0.00 | 89 | 1019.5 | |
| 20260509024051 | 43 | 0.0 | 0.0 | 0.00 | 0.00 | 0.00 | 89 | 1019.6 | |
| 20260509023539 | 43 | 0.0 | 0.0 | 0.00 | 0.00 | 0.00 | 89 | 1019.7 | |
| 20260509023103 | 43 | 0.0 | 0.0 | 0.00 | 0.00 | 0.00 | 89 | 1019.6 | |
| 20260509022548 | 43 | 0.0 | 0.0 | 0.00 | 0.00 | 0.00 | 89 | 1019.6 | |
| 20260509022038 | 43 | 0.0 | 0.0 | 0.00 | 0.00 | 0.00 | 89 | 1019.6 | |
| 20260509021558 | 43 | 0.0 | 0.0 | 0.00 | 0.00 | 0.00 | 89 | 1019.5 | |
| 20260509021049 | 43 | 0.0 | 0.0 | 0.00 | 0.00 | 0.00 | 89 | 1019.5 | |
| 20260509020533 | 43 | 0.0 | 0.0 | 0.00 | 0.00 | 0.00 | 89 | 1019.6 | |
| 20260509020003 | 43 | 0.0 | 0.0 | 0.00 | 0.00 | 0.00 | 89 | 1019.4 | |
| 20260509015552 | 43 | 0.0 | 0.0 | 0.00 | 0.00 | 0.00 | 88 | 1019.5 | |
| 20260509015043 | 44 | 0.0 | 0.0 | 0.00 | 0.00 | 0.00 | 88 | 1019.6 | |
| 20260509014601 | 44 | 0.0 | 0.0 | 0.00 | 0.00 | 0.00 | 88 | 1019.6 | |
| 20260509014048 | 44 | 0.0 | 0.0 | 0.00 | 0.00 | 0.00 | 88 | 1019.6 | |
| 20260509013539 | 44 | 0.0 | 0.0 | 0.00 | 0.00 | 0.00 | 88 | 1019.5 | |
| 20260509013109 | 44 | 0.0 | 0.0 | 0.00 | 0.00 | 0.00 | 88 | 1019.5 | |
| 20260509012544 | 44 | 0.0 | 0.0 | 0.00 | 0.00 | 0.00 | 88 | 1019.5 | |
| 20260509012033 | 44 | 0.0 | 0.0 | 0.00 | 0.00 | 0.00 | 88 | 1019.5 | |
| 20260509011554 | 45 | 0.0 | 0.0 | 0.00 | 0.00 | 0.00 | 88 | 1019.6 | |
| 20260509011041 | 45 | 0.0 | 0.0 | 0.00 | 0.00 | 0.00 | 88 | 1019.6 | |
| 20260509010529 | 45 | 0.0 | 0.0 | 0.00 | 0.00 | 0.00 | 88 | 1019.6 | |
| 20260509010051 | 45 | 0.0 | 0.0 | 0.00 | 0.00 | 0.00 | 88 | 1019.6 | |
| 20260509005539 | 45 | 0.0 | 0.0 | 0.00 | 0.00 | 0.00 | 88 | 1019.7 | |
| 20260509005027 | 45 | 0.0 | 0.0 | 0.00 | 0.00 | 0.00 | 87 | 1019.6 | |
| 20260509004547 | 45 | 0.0 | 0.0 | 0.00 | 0.00 | 0.00 | 87 | 1019.7 | |
| 20260509004027 | 45 | 0.0 | 0.0 | 0.00 | 0.00 | 0.00 | 87 | 1019.7 | |
| 20260509003514 | 46 | 0.0 | 0.0 | 0.00 | 0.00 | 0.00 | 87 | 1019.7 | |
| 20260509003036 | 46 | 0.0 | 0.0 | 0.00 | 0.00 | 0.00 | 87 | 1019.6 | |
| 20260509002520 | 46 | 0.0 | 0.0 | 0.00 | 0.00 | 0.00 | 87 | 1019.7 | |
| 20260509002007 | 46 | 0.0 | 0.0 | 0.00 | 0.00 | 0.00 | 87 | 1019.6 | |
| 20260509001535 | 46 | 0.0 | 0.0 | 0.00 | 0.00 | 0.00 | 87 | 1019.6 | |
| 20260509001024 | 46 | 0.0 | 0.0 | 0.00 | 0.00 | 0.00 | 87 | 1019.5 | |
| 20260509000512 | 46 | 0.0 | 0.0 | 0.00 | 0.00 | 0.00 | 87 | 1019.6 | |
| 20260509000036 | 46 | 0.0 | 0.0 | 0.00 | 0.00 | 0.00 | 86 | 1019.5 | |
| 20260508235521 | 46 | 0.0 | 0.0 | 0.00 | 0.00 | 0.00 | 86 | 1019.5 | |
| 20260508235013 | 46 | 0.0 | 0.0 | 0.00 | 0.00 | 0.00 | 86 | 1019.5 | |
| 20260508234531 | 46 | 0.0 | 0.0 | 0.00 | 0.00 | 0.00 | 86 | 1019.5 | |
| 20260508234018 | 46 | 0.0 | 0.0 | 0.00 | 0.00 | 0.00 | 86 | 1019.5 | |
| 20260508233507 | 46 | 0.0 | 0.0 | 0.00 | 0.00 | 0.00 | 85 | 1019.5 | |
| 20260508233036 | 46 | 0.0 | 0.0 | 0.00 | 0.00 | 0.00 | 85 | 1019.5 | |
| 20260508232523 | 46 | 0.0 | 0.0 | 0.00 | 0.00 | 0.00 | 85 | 1019.5 | |
| 20260508232012 | 47 | 0.0 | 0.0 | 0.00 | 0.00 | 0.00 | 85 | 1019.6 | |
| 20260508231532 | 47 | 0.0 | 0.0 | 0.00 | 0.00 | 0.00 | 85 | 1019.6 | |
| 20260508231021 | 47 | 0.0 | 0.0 | 0.00 | 0.00 | 0.00 | 84 | 1019.6 | |
| 20260508230510 | 47 | 0.0 | 0.0 | 0.00 | 0.00 | 0.00 | 84 | 1019.8 | |
| 20260508230038 | 47 | 0.0 | 0.0 | 0.00 | 0.00 | 0.00 | 84 | 1019.7 | |
| 20260508225526 | 47 | 0.0 | 0.0 | 0.00 | 0.00 | 0.00 | 84 | 1019.7 | |
| 20260508225014 | 48 | 0.0 | 0.0 | 0.00 | 0.00 | 0.00 | 83 | 1019.8 | |
| 20260508224535 | 48 | 0.0 | 0.0 | 0.00 | 0.00 | 0.00 | 83 | 1019.7 | |
| 20260508224023 | 48 | 0.0 | 0.0 | 0.00 | 0.00 | 0.00 | 83 | 1019.7 | |
| 20260508223511 | 48 | 0.0 | 0.0 | 0.00 | 0.00 | 0.00 | 82 | 1019.8 | |
| 20260508223035 | 48 | 0.0 | 0.0 | 0.00 | 0.00 | 0.00 | 82 | 1019.8 | |
| 20260508222518 | 49 | 0.0 | 0.0 | 0.00 | 0.00 | 0.00 | 82 | 1019.8 | |
| 20260508222007 | 49 | 0.0 | 0.0 | 0.00 | 0.00 | 0.00 | 82 | 1019.8 | |
| 20260508221534 | 49 | 0.0 | 0.0 | 0.00 | 0.00 | 0.00 | 81 | 1019.8 | |
| 20260508221016 | 49 | 0.0 | 0.0 | 0.00 | 0.00 | 0.00 | 81 | 1019.6 | |
| 20260508220505 | 49 | 0.0 | 0.0 | 0.00 | 0.00 | 0.00 | 80 | 1019.5 | |
| 20260508220034 | 50 | 0.0 | 0.0 | 0.00 | 0.00 | 0.00 | 80 | 1019.6 | |
| 20260508215516 | 50 | 0.0 | 0.0 | 0.00 | 0.00 | 0.00 | 80 | 1019.6 | |
| 20260508215001 | 50 | 0.0 | 0.0 | 0.00 | 0.00 | 0.00 | 79 | 1019.6 | |
| 20260508214531 | 50 | 0.0 | 0.0 | 0.00 | 0.00 | 0.00 | 79 | 1019.6 | |
| 20260508214019 | 50 | 0.0 | 0.0 | 0.00 | 0.00 | 0.00 | 79 | 1019.7 | |
| 20260508213507 | 50 | 0.0 | 0.0 | 0.00 | 0.00 | 0.00 | 78 | 1019.6 | |
| 20260508213043 | 51 | 0.0 | 0.0 | 0.00 | 0.00 | 0.00 | 78 | 1019.7 | |
| 20260508212518 | 51 | 0.0 | 0.0 | 0.00 | 0.00 | 0.00 | 77 | 1019.7 | |
| 20260508212008 | 51 | 0.0 | 0.0 | 0.00 | 0.00 | 0.00 | 77 | 1019.6 | |
| 20260508211536 | 51 | 0.0 | 0.0 | 0.00 | 0.00 | 0.00 | 77 | 1019.5 | |
| 20260508211024 | 52 | 0.0 | 0.0 | 0.00 | 0.00 | 0.00 | 76 | 1019.6 | |
| 20260508210511 | 52 | 0.0 | 0.0 | 0.00 | 0.00 | 0.00 | 76 | 1019.4 | |
| 20260508210034 | 52 | 0.0 | 0.0 | 0.00 | 0.00 | 0.00 | 75 | 1019.4 | |
| 20260508205520 | 52 | 0.0 | 0.0 | 0.00 | 0.00 | 0.00 | 75 | 1019.5 | |
| 20260508205009 | 53 | 0.0 | 0.0 | 0.00 | 0.00 | 0.00 | 75 | 1019.4 | |
| 20260508204526 | 53 | 0.0 | 0.0 | 0.00 | 0.00 | 0.00 | 75 | 1019.4 | |
| 20260508204014 | 53 | 0.0 | 0.0 | 0.00 | 0.00 | 0.00 | 74 | 1019.4 | |
| 20260508203502 | 53 | 0.0 | 0.0 | 0.00 | 0.00 | 0.00 | 74 | 1019.4 | |
| 20260508203022 | 53 | 0.0 | 0.0 | 0.00 | 0.00 | 0.00 | 74 | 1019.4 | |
| 20260508202510 | 53 | 0.0 | 0.0 | 0.00 | 0.00 | 0.00 | 74 | 1019.4 | |
| 20260508202100 | 53 | 0.0 | 0.0 | 0.00 | 0.00 | 0.00 | 74 | 1019.2 | |
| 20260508201519 | 54 | 0.0 | 0.0 | 0.00 | 0.00 | 0.00 | 73 | 1019.2 | |
| 20260508201006 | 54 | 0.0 | 0.0 | 0.00 | 0.00 | 0.00 | 73 | 1019.2 | |
| 20260508200556 | 54 | 0.0 | 0.0 | 0.00 | 0.00 | 0.00 | 73 | 1019.2 | |
| 20260508200024 | 54 | 0.0 | 0.0 | 0.00 | 0.00 | 0.00 | 74 | 1019.1 | |
| 20260508195509 | 54 | 0.0 | 0.0 | 0.00 | 0.00 | 0.00 | 73 | 1019.1 | |
| 20260508195058 | 54 | 0.0 | 0.0 | 0.00 | 0.00 | 0.00 | 73 | 1019.1 | |
| 20260508194526 | 54 | 0.0 | 0.0 | 0.00 | 0.00 | 0.00 | 73 | 1019.1 | |
| 20260508194013 | 55 | 0.0 | 0.0 | 0.00 | 0.00 | 0.00 | 72 | 1019.1 | |
| 20260508193501 | 55 | 0.0 | 0.0 | 0.00 | 0.00 | 0.00 | 72 | 1019.0 | |
| 20260508193021 | 55 | 0.0 | 0.0 | 0.00 | 0.00 | 0.00 | 72 | 1018.9 | |
| 20260508192508 | 55 | 0.0 | 0.0 | 0.00 | 0.00 | 0.00 | 71 | 1018.8 | |
| 20260508192057 | 55 | 0.0 | 0.0 | 0.00 | 0.00 | 0.00 | 71 | 1018.8 | |
| 20260508191524 | 56 | 0.0 | 0.0 | 0.00 | 0.00 | 0.00 | 70 | 1018.7 |